• In Hungary
  • List of Countries
  • For 7 days
  • Water Temperature
  • Satellite Maps
  • Weather Map
  • News
  • Weather Widgets
  • user-avatar
    Login

    Hourly Weather Barglowka

    Today, 21 October, Saturday

    Time Temperature Precipitation Wind Pressure Humidity
    00:00 +12°C° 0 mm 2 mps 741 mmHg 73%
    01:00 +10°C° 0 mm 2 mps 741 mmHg 76%
    02:00 +10°C° 0.1 mm 3 mps 741 mmHg 77%
    03:00 +10°C° 0.1 mm 3 mps 741 mmHg 78%
    04:00 +10°C° 0.1 mm 3 mps 740 mmHg 78%
    05:00 +10°C° 0.1 mm 3 mps 740 mmHg 79%
    06:00 +10°C° 0.1 mm 3 mps 740 mmHg 80%
    07:00 +10°C° 0.1 mm 3 mps 740 mmHg 81%
    08:00 +11°C° 0 mm 3 mps 741 mmHg 77%
    09:00 +13°C° 0 mm 3 mps 741 mmHg 73%
    10:00 +14°C° 0 mm 3 mps 741 mmHg 69%
    11:00 +16°C° 0 mm 3 mps 740 mmHg 66%
    12:00 +16°C° 0 mm 3 mps 740 mmHg 63%
    13:00 +17°C° 0 mm 3 mps 740 mmHg 60%
    14:00 +16°C° 0 mm 3 mps 740 mmHg 62%
    15:00 +16°C° 0 mm 2 mps 740 mmHg 64%
    16:00 +15°C° 0 mm 2 mps 740 mmHg 66%
    17:00 +14°C° 0 mm 1 mps 740 mmHg 70%
    18:00 +13°C° 0 mm 1 mps 740 mmHg 73%
    19:00 +11°C° 0 mm 0 mps 740 mmHg 77%
    20:00 +12°C° 0 mm 1 mps 741 mmHg 79%
    21:00 +11°C° 0 mm 1 mps 741 mmHg 80%
    22:00 +11°C° 0 mm 1 mps 741 mmHg 81%
    23:00 +11°C° 0 mm 1 mps 741 mmHg 82%

    Tomorrow, 22 October, Sunday

    Time Temperature Precipitation Wind Pressure Humidity
    00:00 +10°C° 0 mm 1 mps 741 mmHg 83%
    01:00 +9°C° 0 mm 2 mps 740 mmHg 84%
    02:00 +9°C° 0 mm 2 mps 740 mmHg 83%
    03:00 +9°C° 0 mm 2 mps 740 mmHg 83%
    04:00 +9°C° 0 mm 2 mps 740 mmHg 83%
    05:00 +9°C° 0 mm 2 mps 739 mmHg 82%
    06:00 +10°C° 0 mm 2 mps 739 mmHg 82%
    07:00 +10°C° 0 mm 3 mps 739 mmHg 81%
    08:00 +10°C° 1.5 mm 3 mps 739 mmHg 82%
    09:00 +11°C° 1.5 mm 3 mps 739 mmHg 82%
    10:00 +12°C° 1.5 mm 3 mps 739 mmHg 83%
    11:00 +11°C° 1.5 mm 3 mps 739 mmHg 85%
    12:00 +11°C° 1.5 mm 3 mps 739 mmHg 87%
    13:00 +11°C° 1.5 mm 3 mps 739 mmHg 89%
    14:00 +12°C° 0.2 mm 2 mps 739 mmHg 89%
    15:00 +12°C° 0.2 mm 2 mps 739 mmHg 89%
    16:00 +12°C° 0.2 mm 2 mps 738 mmHg 90%
    17:00 +12°C° 0.3 mm 2 mps 739 mmHg 90%
    18:00 +10°C° 0.3 mm 2 mps 739 mmHg 91%
    19:00 +10°C° 0.3 mm 2 mps 739 mmHg 92%
    20:00 +10°C° 0.4 mm 2 mps 739 mmHg 92%
    21:00 +10°C° 0.4 mm 2 mps 739 mmHg 92%
    22:00 +10°C° 0.4 mm 2 mps 739 mmHg 92%
    23:00 +10°C° 0.7 mm 2 mps 739 mmHg 92%

    Day after tomorrow, 23 October, Monday

    Time Temperature Precipitation Wind Pressure Humidity
    00:00 +9°C° 0.7 mm 3 mps 739 mmHg 91%
    01:00 +9°C° 0.7 mm 3 mps 739 mmHg 90%
    02:00 +9°C° 0.5 mm 3 mps 739 mmHg 90%
    03:00 +9°C° 0.5 mm 3 mps 739 mmHg 90%
    04:00 +8°C° 0.5 mm 3 mps 738 mmHg 90%
    05:00 +8°C° 0.3 mm 3 mps 738 mmHg 89%
    06:00 +8°C° 0.3 mm 3 mps 739 mmHg 89%
    07:00 +7°C° 0.3 mm 4 mps 739 mmHg 88%
    08:00 +7°C° 0.3 mm 4 mps 739 mmHg 87%
    09:00 +7°C° 0.3 mm 4 mps 739 mmHg 85%
    10:00 +8°C° 0.3 mm 4 mps 739 mmHg 83%
    11:00 +8°C° 0.2 mm 5 mps 739 mmHg 82%
    12:00 +8°C° 0.2 mm 5 mps 739 mmHg 81%
    13:00 +8°C° 0.2 mm 5 mps 739 mmHg 80%
    14:00 +8°C° 0.5 mm 5 mps 739 mmHg 82%
    15:00 +8°C° 0.5 mm 5 mps 739 mmHg 83%
    16:00 +8°C° 0.5 mm 4 mps 739 mmHg 85%
    17:00 +8°C° 0.6 mm 5 mps 740 mmHg 86%
    18:00 +7°C° 0.6 mm 5 mps 740 mmHg 88%
    19:00 +7°C° 0.6 mm 5 mps 740 mmHg 89%
    20:00 +7°C° 0.7 mm 5 mps 740 mmHg 90%
    21:00 +7°C° 0.7 mm 5 mps 741 mmHg 91%
    22:00 +7°C° 0.7 mm 4 mps 741 mmHg 91%
    23:00 +7°C° 0.7 mm 4 mps 741 mmHg 92%

    24 October, Tuesday

    Time Temperature Precipitation Wind Pressure Humidity
    00:00 +7°C° 0.7 mm 4 mps 741 mmHg 92%
    01:00 +7°C° 0.7 mm 4 mps 741 mmHg 92%
    02:00 +7°C° 0.7 mm 4 mps 742 mmHg 92%
    03:00 +7°C° 0.7 mm 4 mps 742 mmHg 92%
    04:00 +7°C° 0.7 mm 4 mps 742 mmHg 92%
    05:00 +6°C° 0.2 mm 4 mps 743 mmHg 91%
    06:00 +6°C° 0.2 mm 4 mps 743 mmHg 91%
    07:00 +6°C° 0.2 mm 4 mps 744 mmHg 90%
    08:00 +6°C° 0 mm 4 mps 744 mmHg 87%
    09:00 +7°C° 0 mm 4 mps 745 mmHg 84%
    10:00 +7°C° 0 mm 4 mps 746 mmHg 80%
    11:00 +8°C° 0 mm 4 mps 746 mmHg 77%
    12:00 +8°C° 0 mm 4 mps 746 mmHg 73%
    13:00 +10°C° 0 mm 4 mps 746 mmHg 69%
    14:00 +10°C° 0 mm 4 mps 747 mmHg 70%
    15:00 +9°C° 0 mm 3 mps 747 mmHg 71%
    16:00 +9°C° 0 mm 3 mps 748 mmHg 72%
    17:00 +8°C° 0 mm 3 mps 748 mmHg 74%
    18:00 +8°C° 0 mm 3 mps 749 mmHg 77%
    19:00 +7°C° 0 mm 3 mps 749 mmHg 79%
    20:00 +6°C° 0 mm 2 mps 749 mmHg 80%
    21:00 +6°C° 0 mm 2 mps 749 mmHg 81%
    22:00 +5°C° 0 mm 2 mps 749 mmHg 82%
    23:00 +5°C° 0 mm 2 mps 750 mmHg 82%

    25 October, Wednesday

    Time Temperature Precipitation Wind Pressure Humidity
    00:00 +4°C° 0 mm 2 mps 750 mmHg 82%
    01:00 +4°C° 0 mm 2 mps 750 mmHg 82%
    02:00 +3°C° 0 mm 2 mps 750 mmHg 81%
    03:00 +3°C° 0 mm 2 mps 750 mmHg 81%
    04:00 +3°C° 0 mm 2 mps 750 mmHg 81%
    05:00 +2°C° 0 mm 2 mps 751 mmHg 81%
    06:00 +2°C° 0 mm 2 mps 751 mmHg 80%
    07:00 +2°C° 0 mm 2 mps 751 mmHg 80%
    08:00 +3°C° 0 mm 2 mps 751 mmHg 73%
    09:00 +3°C° 0 mm 3 mps 751 mmHg 67%
    10:00 +4°C° 0 mm 3 mps 752 mmHg 60%
    11:00 +5°C° 0 mm 3 mps 752 mmHg 57%
    12:00 +7°C° 0 mm 3 mps 752 mmHg 54%
    13:00 +7°C° 0 mm 3 mps 752 mmHg 51%
    14:00 +7°C° 0 mm 3 mps 752 mmHg 53%
    15:00 +5°C° 0 mm 3 mps 752 mmHg 56%
    16:00 +5°C° 0 mm 3 mps 752 mmHg 59%
    17:00 +4°C° 0 mm 3 mps 752 mmHg 62%
    18:00 +4°C° 0 mm 2 mps 753 mmHg 66%
    19:00 +3°C° 0 mm 2 mps 753 mmHg 69%
    20:00 +3°C° 0 mm 2 mps 753 mmHg 71%
    21:00 +2°C° 0 mm 2 mps 754 mmHg 72%
    22:00 +2°C° 0 mm 2 mps 754 mmHg 74%
    23:00 +2°C° 0 mm 2 mps 754 mmHg 74%

    26 October, Thursday

    Time Temperature Precipitation Wind Pressure Humidity
    00:00 +1°C° 0 mm 2 mps 754 mmHg 75%
    01:00 +1°C° 0 mm 2 mps 754 mmHg 76%
    02:00 +1°C° 0 mm 2 mps 754 mmHg 76%
    03:00 -1°C° 0 mm 2 mps 754 mmHg 76%
    04:00 -1°C° 0 mm 2 mps 754 mmHg 76%
    05:00 -1°C° 0 mm 2 mps 754 mmHg 75%
    06:00 -1°C° 0 mm 2 mps 754 mmHg 73%
    07:00 -1°C° 0 mm 2 mps 754 mmHg 72%
    08:00 +2°C° 0 mm 2 mps 754 mmHg 64%
    09:00 +4°C° 0 mm 2 mps 754 mmHg 56%
    10:00 +5°C° 0 mm 2 mps 754 mmHg 48%
    11:00 +6°C° 0 mm 2 mps 753 mmHg 45%
    12:00 +7°C° 0 mm 2 mps 753 mmHg 41%
    13:00 +8°C° 0 mm 2 mps 753 mmHg 38%
    14:00 +8°C° 0 mm 2 mps 753 mmHg 42%
    15:00 +7°C° 0 mm 2 mps 753 mmHg 46%
    16:00 +6°C° 0 mm 2 mps 753 mmHg 50%
    17:00 +5°C° 0 mm 2 mps 753 mmHg 51%
    18:00 +5°C° 0 mm 1 mps 753 mmHg 53%
    19:00 +4°C° 0 mm 1 mps 753 mmHg 54%
    20:00 +4°C° 0 mm 1 mps 753 mmHg 54%
    21:00 +4°C° 0 mm 1 mps 753 mmHg 53%
    22:00 +4°C° 0 mm 1 mps 753 mmHg 53%
    23:00 +4°C° 0 mm 1 mps 753 mmHg 52%
    Show more